This is the latest recevied weather packets stored in our database for station/object N5TDX. If no packets are shown the sender has not sent any weather packets the latest 10 day(s).
| Time | Temp. | Humidity | Pressure | Rain* | Wind** | Luminosity | Snow |
|---|---|---|---|---|---|---|---|
| 1777666256 | 17.78° C | 51% | 1013.6 hPa | 0 mm | - | - | - |
| 1777665953 | 17.78° C | 52% | 1013.6 hPa | 0 mm | - | - | - |
| 1777665651 | 17.78° C | 48% | 1013.5 hPa | 0 mm | - | - | - |
| 1777665348 | 17.78° C | 48% | 1013.4 hPa | 0 mm | - | - | - |
| 1777665043 | 17.78° C | 47% | 1013.4 hPa | 0 mm | - | - | - |
| 1777664739 | 17.78° C | 46% | 1013.5 hPa | 0 mm | - | - | - |
| 1777664435 | 18.33° C | 45% | 1013.5 hPa | 0 mm | - | - | - |
| 1777664133 | 18.33° C | 44% | 1013.2 hPa | 0 mm | - | - | - |
| 1777663831 | 18.33° C | 46% | 1013.2 hPa | 0 mm | - | - | - |
| 1777663528 | 18.33° C | 46% | 1013 hPa | 0 mm | - | - | - |
| 1777663226 | 18.33° C | 46% | 1012.6 hPa | 0 mm | - | - | - |
| 1777662923 | 17.78° C | 46% | 1012.7 hPa | 0 mm | - | - | - |
| 1777662620 | 17.78° C | 47% | 1012.7 hPa | 0 mm | - | - | - |
| 1777662315 | 17.22° C | 46% | 1012.5 hPa | 0 mm | - | - | - |
| 1777662011 | 17.22° C | 48% | 1012.3 hPa | 0 mm | - | - | - |
| 1777661707 | 17.22° C | 48% | 1012.3 hPa | 0 mm | - | - | - |
| 1777661403 | 17.22° C | 48% | 1012.4 hPa | 0 mm | - | - | - |
| 1777661099 | 17.78° C | 47% | 1012.7 hPa | 0 mm | - | - | - |
| 1777660794 | 17.78° C | 48% | 1013 hPa | 0 mm | - | - | - |
| 1777660492 | 17.78° C | 47% | 1013.1 hPa | 0 mm | - | - | - |
| 1777660188 | 17.78° C | 46% | 1013.2 hPa | 0 mm | - | - | - |
| 1777659885 | 17.78° C | 46% | 1012.8 hPa | 0 mm | - | - | - |
| 1777659581 | 17.78° C | 45% | 1012.8 hPa | 0 mm | - | - | - |
| 1777659279 | 17.78° C | 47% | 1012.9 hPa | 0 mm | - | - | - |
| 1777658976 | 17.78° C | 45% | 1013.2 hPa | 0 mm | - | - | - |
* Rain latest hour (hover to see other rain measurements)
** Current wind speed in m/s (hover to see current wind gust speed)